Hourly Weather Barra

Today, 18 April, Sunday

Time Temperature Precipitation Wind Pressure Humidity
00:00 +27°C° 0 mm 4 mps 757 mmHg 47%
01:00 +26°C° 0 mm 3 mps 756 mmHg 47%
02:00 +26°C° 0 mm 1 mps 756 mmHg 48%
03:00 +26°C° 0 mm 2 mps 756 mmHg 49%
04:00 +25°C° 0 mm 2 mps 756 mmHg 50%
05:00 +25°C° 0 mm 2 mps 757 mmHg 51%
06:00 +26°C° 0 mm 2 mps 757 mmHg 46%
07:00 +28°C° 0 mm 2 mps 758 mmHg 40%
08:00 +29°C° 0 mm 2 mps 758 mmHg 34%
09:00 +31°C° 0 mm 3 mps 758 mmHg 28%
10:00 +35°C° 0 mm 3 mps 758 mmHg 23%
11:00 +37°C° 0 mm 3 mps 757 mmHg 17%
12:00 +38°C° 0 mm 4 mps 756 mmHg 16%
13:00 +40°C° 0 mm 5 mps 756 mmHg 16%
14:00 +41°C° 0 mm 6 mps 755 mmHg 15%
15:00 +39°C° 0 mm 7 mps 755 mmHg 24%
16:00 +35°C° 0 mm 7 mps 755 mmHg 32%
17:00 +32°C° 0 mm 8 mps 755 mmHg 40%
18:00 +32°C° 0 mm 7 mps 755 mmHg 42%
19:00 +30°C° 0 mm 7 mps 756 mmHg 44%
20:00 +30°C° 0 mm 7 mps 756 mmHg 46%
21:00 +29°C° 0 mm 6 mps 757 mmHg 48%
22:00 +28°C° 0 mm 4 mps 757 mmHg 51%
23:00 +27°C° 0 mm 3 mps 758 mmHg 54%

Tomorrow, 19 April, Monday

Time Temperature Precipitation Wind Pressure Humidity
00:00 +26°C° 0 mm 3 mps 757 mmHg 58%
01:00 +25°C° 0 mm 4 mps 757 mmHg 62%
02:00 +25°C° 0 mm 4 mps 757 mmHg 66%
03:00 +24°C° 0 mm 3 mps 757 mmHg 66%
04:00 +24°C° 0 mm 3 mps 757 mmHg 67%
05:00 +24°C° 0 mm 2 mps 757 mmHg 68%
06:00 +26°C° 0 mm 3 mps 758 mmHg 57%
07:00 +27°C° 0 mm 3 mps 758 mmHg 47%
08:00 +29°C° 0 mm 3 mps 759 mmHg 36%
09:00 +31°C° 0 mm 3 mps 759 mmHg 31%
10:00 +35°C° 0 mm 4 mps 758 mmHg 25%
11:00 +37°C° 0 mm 4 mps 758 mmHg 20%
12:00 +37°C° 0 mm 5 mps 757 mmHg 20%
13:00 +39°C° 0 mm 5 mps 757 mmHg 21%
14:00 +39°C° 0 mm 6 mps 756 mmHg 22%
15:00 +36°C° 0 mm 7 mps 756 mmHg 30%
16:00 +33°C° 0 mm 7 mps 755 mmHg 38%
17:00 +31°C° 0 mm 8 mps 755 mmHg 47%
18:00 +29°C° 0 mm 7 mps 756 mmHg 49%
19:00 +29°C° 0 mm 7 mps 756 mmHg 51%
20:00 +28°C° 0 mm 7 mps 756 mmHg 53%
21:00 +28°C° 0 mm 6 mps 757 mmHg 53%
22:00 +27°C° 0 mm 5 mps 757 mmHg 53%
23:00 +27°C° 0 mm 4 mps 758 mmHg 53%

Day after tomorrow, 20 April, Tuesday

Time Temperature Precipitation Wind Pressure Humidity
00:00 +26°C° 0 mm 4 mps 757 mmHg 56%
01:00 +26°C° 0 mm 4 mps 757 mmHg 59%
02:00 +25°C° 0 mm 3 mps 757 mmHg 62%
03:00 +25°C° 0 mm 3 mps 757 mmHg 65%
04:00 +24°C° 0 mm 3 mps 757 mmHg 67%
05:00 +24°C° 0 mm 3 mps 757 mmHg 70%
06:00 +25°C° 0 mm 3 mps 757 mmHg 62%
07:00 +26°C° 0 mm 4 mps 757 mmHg 54%
08:00 +28°C° 0 mm 4 mps 758 mmHg 46%
09:00 +30°C° 0 mm 4 mps 758 mmHg 40%
10:00 +33°C° 0 mm 4 mps 758 mmHg 33%
11:00 +35°C° 0 mm 4 mps 758 mmHg 26%
12:00 +36°C° 0 mm 5 mps 757 mmHg 27%
13:00 +36°C° 0 mm 6 mps 756 mmHg 28%
14:00 +36°C° 0 mm 6 mps 756 mmHg 30%
15:00 +34°C° 0 mm 7 mps 756 mmHg 35%
16:00 +32°C° 0 mm 7 mps 756 mmHg 40%
17:00 +31°C° 0 mm 8 mps 755 mmHg 46%
18:00 +29°C° 0 mm 8 mps 756 mmHg 49%
19:00 +28°C° 0 mm 8 mps 756 mmHg 52%
20:00 +27°C° 0 mm 8 mps 756 mmHg 55%
21:00 +26°C° 0 mm 8 mps 757 mmHg 56%
22:00 +26°C° 0 mm 7 mps 757 mmHg 58%
23:00 +24°C° 0 mm 7 mps 757 mmHg 59%

21 April, Wednesday

Time Temperature Precipitation Wind Pressure Humidity
00:00 +24°C° 0 mm 7 mps 756 mmHg 61%
01:00 +24°C° 0 mm 6 mps 756 mmHg 63%
02:00 +23°C° 0 mm 6 mps 756 mmHg 66%
03:00 +23°C° 0 mm 6 mps 756 mmHg 67%
04:00 +23°C° 0 mm 6 mps 756 mmHg 68%
05:00 +22°C° 0 mm 6 mps 756 mmHg 70%
06:00 +23°C° 0 mm 5 mps 757 mmHg 64%
07:00 +26°C° 0 mm 5 mps 757 mmHg 58%
08:00 +27°C° 0 mm 4 mps 758 mmHg 52%
09:00 +29°C° 0 mm 4 mps 758 mmHg 45%
10:00 +32°C° 0 mm 4 mps 758 mmHg 37%
11:00 +34°C° 0 mm 4 mps 758 mmHg 29%
12:00 +34°C° 0 mm 4 mps 757 mmHg 31%
13:00 +35°C° 0 mm 5 mps 756 mmHg 32%
14:00 +35°C° 0 mm 6 mps 756 mmHg 33%
15:00 +33°C° 0 mm 6 mps 756 mmHg 39%
16:00 +30°C° 0 mm 6 mps 756 mmHg 45%
17:00 +29°C° 0 mm 7 mps 756 mmHg 52%
18:00 +27°C° 0 mm 7 mps 756 mmHg 60%
19:00 +26°C° 0 mm 7 mps 757 mmHg 67%
20:00 +23°C° 0 mm 7 mps 757 mmHg 75%
21:00 +23°C° 0 mm 7 mps 757 mmHg 75%
22:00 +23°C° 0 mm 7 mps 758 mmHg 75%
23:00 +23°C° 0 mm 7 mps 758 mmHg 75%

22 April, Thursday

Time Temperature Precipitation Wind Pressure Humidity
00:00 +23°C° 0 mm 6 mps 757 mmHg 76%
01:00 +22°C° 0 mm 6 mps 757 mmHg 77%
02:00 +22°C° 0 mm 5 mps 757 mmHg 78%
03:00 +22°C° 0 mm 5 mps 757 mmHg 78%
04:00 +22°C° 0 mm 5 mps 757 mmHg 79%
05:00 +21°C° 0 mm 5 mps 757 mmHg 80%
06:00 +23°C° 0 mm 4 mps 758 mmHg 71%
07:00 +25°C° 0 mm 4 mps 758 mmHg 63%
08:00 +26°C° 0 mm 4 mps 759 mmHg 54%
09:00 +28°C° 0 mm 4 mps 759 mmHg 46%
10:00 +32°C° 0 mm 4 mps 759 mmHg 39%
11:00 +34°C° 0 mm 4 mps 759 mmHg 31%
12:00 +34°C° 0 mm 5 mps 758 mmHg 33%
13:00 +33°C° 0 mm 6 mps 757 mmHg 36%
14:00 +33°C° 0 mm 7 mps 757 mmHg 38%
15:00 +32°C° 0 mm 6 mps 757 mmHg 42%
16:00 +30°C° 0 mm 6 mps 757 mmHg 47%
17:00 +29°C° 0 mm 6 mps 756 mmHg 51%
18:00 +27°C° 0 mm 6 mps 757 mmHg 59%
19:00 +26°C° 0 mm 6 mps 757 mmHg 66%
20:00 +23°C° 0 mm 6 mps 757 mmHg 73%
21:00 +23°C° 0 mm 6 mps 758 mmHg 73%
22:00 +23°C° 0 mm 6 mps 758 mmHg 73%
23:00 +23°C° 0 mm 6 mps 758 mmHg 73%

23 April, Friday

Time Temperature Precipitation Wind Pressure Humidity
00:00 +23°C° 0 mm 6 mps 757 mmHg 74%
01:00 +22°C° 0 mm 6 mps 757 mmHg 76%
02:00 +22°C° 0 mm 5 mps 756 mmHg 77%
03:00 +22°C° 0 mm 5 mps 757 mmHg 77%
04:00 +22°C° 0 mm 5 mps 757 mmHg 77%
05:00 +21°C° 0 mm 4 mps 757 mmHg 77%
06:00 +23°C° 0 mm 4 mps 757 mmHg 69%
07:00 +25°C° 0 mm 4 mps 758 mmHg 61%
08:00 +26°C° 0 mm 4 mps 758 mmHg 52%
09:00 +28°C° 0 mm 4 mps 758 mmHg 44%
10:00 +32°C° 0 mm 4 mps 758 mmHg 36%
11:00 +34°C° 0 mm 4 mps 758 mmHg 28%
12:00 +34°C° 0 mm 5 mps 758 mmHg 28%
13:00 +34°C° 0 mm 5 mps 757 mmHg 29%
14:00 +35°C° 0 mm 6 mps 756 mmHg 30%
15:00 +33°C° 0 mm 6 mps 756 mmHg 36%
16:00 +30°C° 0 mm 6 mps 756 mmHg 41%
17:00 +29°C° 0 mm 6 mps 756 mmHg 47%
18:00 +27°C° 0 mm 6 mps 757 mmHg 56%
19:00 +26°C° 0 mm 6 mps 757 mmHg 65%
20:00 +23°C° 0 mm 6 mps 757 mmHg 75%
21:00 +23°C° 0 mm 6 mps 758 mmHg 75%
22:00 +23°C° 0 mm 6 mps 758 mmHg 76%
23:00 +23°C° 0 mm 6 mps 758 mmHg 77%
Show more